Location: West Sayville
(40.7279°N, 73.0976°W)
Time: 10:08:39
(UTC+00:00)

GPS 2-04 Rocket1 - Pass Details

Date: 29 October 2020
Orbit: 418 x 545 km, 35.6° (Epoch: 23 November)

Event Time Altitude Azimuth Distance (km) Brightness Sun altitude
Rises 23:33:28 0° 246° (WSW) 2,620 7.5 -19.8°
Reaches altitude 10° 23:35:47 10° 238° (WSW) 1,754 6.2 -20.2°
Maximum altitude 23:39:31 36° 171° (S) 855 3.7 -20.9°
Enters shadow 23:39:45 36° 162° (SSE) 861 3.6 -21.0°
